Showing default

TELKOM 1, 25880

Orbit data source: Space-Track

TELKOM 1, 25880 is a payload satellite owned by Telkom (ID) in GEO that was launched on Thu, 12 Aug 1999 UTC via an ARIANE 42P launch vehicle from the French Guiana (FRGUI). Payload-class satellites include a variety of spacecraft equipped with specific instruments for various scientific and technological missions. These include communications satellites like Starlink; space stations such as the ISS; scientific satellites like the Hubble; Earth observation satellites from companies like Planet Labs, Umbra, and HawkEye 360; GPS; miniature CubeSats for education and research; and military/defense satellites.

Not visible in the next 10 days
Identifier
25880, 1999-042A
Orbit
GEO
Last TLE update
14 hours ago
Origin
Manufacturer
LMCSS
Mission
Non-operational Commercial Communications
Bus & Motor
A2100, LEROS 1C
Mass
2,763 kg wet, ~1,500 kg dry
Launch date (UTC)
1999-08-12 (26 years ago)
Launch vehicle
ARIANE 42P
Launch site
French Guiana (FRGUI)
Object type
Payload
Rocket body
Debris
Shape & HBR
Box + 1 Pan, 22.5 m
Radar Cross Section
38.975 m², Large (>1 m²)

Expand to show TLE details & history

TLE from 14 hours ago
0 TELKOM 1
1 25880U 99042A   25188.72212281 -.00000135  00000-0  00000-0 0  9996
2 25880   6.8250  70.2897 0013953 250.1413 305.4659  1.00300768 94938
Epoch: 2025-07-07T17:19Z
TLE epoch observation values (Epoch: 2025-07-07T17:19:51.41Z)
Latitude
-1.8378°
Longitude
79.77779°
Altitude
35,743.878 km
Speed
3.078 km/s
True Right ascension
17h 42m 40s
True Declination
-1° 50' 09"
Sunlit
Object was in daylight at epoch
Visualization orbit readout
Latitude
5.07567°
Longitude
-68.06321°
Altitude
35,832.044 km
Speed
3.071 km/s
Apparent Right ascension
07h 49m 12s
Apparent Declination
0° 24' 55"
Sunlit
Object is in daylight
Visualization observer readout
Local Sidereal Time
19:31:07
Azimuth
352.917° N
Elevation
-50.285°
Doppler factor
1
Orbital elements
Apogee altitude
35,838.343 km
Perigee altitude
35,720.698 km
Semi-major axis
42,157.657 km
Eccentricity
0.0014
Inclination
6.825°
RAAN
70.2897°
Arg. of periapsis
250.1413°
True anomaly
Unknown
Mean anomaly
305.4659°
Eccentric anomaly
Unknown
Mean motion
0.25074 °/min
Orbital period
1,435.73 mins
BSTAR
0
Loading historical data...
25880 neighbors
Loading maneuver chart data...
Loading SW <> Apogee altitude chart data...
Loading historical data...
Loading historical data...
Loading historical data...
Loading historical data...
Loading historical data...
Loading historical data...
Loading historical data...
Other satellites on launch #42 in the year 1999 (1999-08-12 UTC)

TELKOM 1 Visibility

Observer location: undefined°, undefined°

TELKOM 1 is likely not visible in the next few days
Span
Click to sort rows by Start time (UTC) header in descending order
Start Az.
Max El. time (UTC)
Max El. Az.
Max El.
End time (UTC)
End Az.
|